Location: Boston
(42.3580°N, 71.0600°W)
Time: 05:58:38
(UTC-04:00)

ISS - Pass Details

Date: 09 October 2017
Orbit: 401 x 408 km, 51.6° (Epoch: 23 October)

Event Time Altitude Azimuth Distance (km) Brightness Sun altitude
Rises 20:34:26 0° 305° (NW) 2,329 1.2 -27.0°
Reaches altitude 10° 20:36:32 10° 307° (NW) 1,468 -0.1 -27.3°
Enters shadow 20:37:36 19° 309° (NW) 1,041 -1.1 -27.5°
